GW6995 Weather Reports


time (UTC)temp
C
wind
direction
speed
KPH
gust
KPH
rain 1hr
cm
rain 24hr
cm
rain mn
cm
humidity
%
barometer
mb
20260506123039 20 210 3.2 16.1 0.00 0.00 0.00 64 1009.9
20260506122535 20 181 3.2 12.9 0.00 0.00 0.00 65 1009.9
20260506122034 20 212 3.2 6.4 0.00 0.00 0.00 65 1009.8
20260506121531 20 232 0.0 6.4 0.00 0.00 0.00 66 1009.8
20260506121027 20 217 3.2 14.5 0.00 0.00 0.00 65 1010.3
20260506120525 20 116 6.4 12.9 0.00 0.00 0.00 66 1010.3
20260506120022 20 182 3.2 9.7 0.00 0.00 0.00 66 1010.3
20260506115520 20 235 3.2 11.3 0.00 0.00 0.00 66 1010.3
20260506115018 20 209 3.2 6.4 0.00 0.00 0.00 67 1010.4
20260506114515 19 64 3.2 9.7 0.00 0.00 0.00 67 1010.2
20260506114014 19 184 11.3 16.1 0.00 0.00 0.00 67 1010.5
20260506113511 19 125 1.6 6.4 0.00 0.00 0.00 69 1010.3
20260506113008 19 186 1.6 14.5 0.00 0.00 0.00 68 1010.4
20260506112505 18 175 1.6 3.2 0.00 0.00 0.00 70 1010.4
20260506112002 18 238 1.6 6.4 0.00 0.00 0.00 70 1010.4
20260506111500 18 98 4.8 9.7 0.00 0.00 0.00 71 1010.1
20260506110957 18 193 6.4 9.7 0.00 0.00 0.00 72 1010.3
20260506110455 18 196 6.4 9.7 0.00 0.00 0.00 72 1010.2
20260506105951 18 214 1.6 6.4 0.00 0.00 0.00 73 1010.0
20260506105447 17 160 0.0 6.4 0.00 0.00 0.00 73 1010.0
20260506104945 17 206 3.2 9.7 0.00 0.00 0.00 74 1010.0
20260506104443 17 232 4.8 4.8 0.00 0.00 0.00 74 1010.0
20260506103941 17 195 0.0 4.8 0.00 0.00 0.00 74 1010.1
20260506103438 17 228 1.6 12.9 0.00 0.00 0.00 74 1010.2
20260506102934 17 138 4.8 4.8 0.00 0.00 0.00 74 1010.1
20260506102432 17 112 6.4 6.4 0.00 0.00 0.00 74 1010.1
20260506101929 17 187 1.6 4.8 0.00 0.00 0.00 74 1010.2
20260506101426 17 198 1.6 3.2 0.00 0.00 0.00 74 1010.0
20260506100923 17 280 8.0 11.3 0.00 0.00 0.00 75 1009.8
20260506100422 17 220 3.2 9.7 0.00 0.00 0.00 75 1009.9
20260506095919 17 202 3.2 3.2 0.00 0.00 0.00 76 1009.8
20260506095418 17 208 1.6 3.2 0.00 0.00 0.00 75 1009.9
20260506094913 17 233 1.6 3.2 0.00 0.00 0.00 75 1009.9
20260506094412 17 226 1.6 6.4 0.00 0.00 0.00 76 1009.8
20260506093909 17 201 0.0 1.6 0.00 0.00 0.00 75 1010.0
20260506093407 17 221 3.2 4.8 0.00 0.00 0.00 75 1010.0
20260506092905 17 107 3.2 6.4 0.00 0.00 0.00 75 1009.9
20260506092403 17 215 1.6 3.2 0.00 0.00 0.00 74 1009.7
20260506091859 17 200 1.6 4.8 0.00 0.00 0.00 74 1010.0
20260506091357 17 200 1.6 3.2 0.00 0.00 0.00 74 1009.9
20260506090854 17 212 3.2 4.8 0.00 0.00 0.00 74 1010.1
20260506090352 17 157 0.0 3.2 0.00 0.00 0.00 74 1010.0
20260506085848 17 247 3.2 9.7 0.00 0.00 0.00 73 1010.2
20260506085344 17 224 3.2 9.7 0.00 0.00 0.00 73 1010.1
20260506084841 17 249 1.6 3.2 0.00 0.00 0.00 73 1010.1
20260506084338 17 168 1.6 6.4 0.00 0.00 0.00 72 1010.1
20260506083834 17 276 3.2 6.4 0.00 0.00 0.00 72 1010.2
20260506083332 18 196 1.6 4.8 0.00 0.00 0.00 72 1010.0
20260506082829 18 214 4.8 9.7 0.00 0.00 0.00 71 1010.1
20260506082325 18 190 1.6 11.3 0.00 0.00 0.00 71 1010.1
20260506081822 18 302 3.2 4.8 0.00 0.00 0.00 71 1010.1
20260506081320 18 191 3.2 9.7 0.00 0.00 0.00 71 1010.1
20260506080817 18 166 1.6 4.8 0.00 0.00 0.00 71 1010.2
20260506080313 18 61 1.6 4.8 0.00 0.00 0.00 70 1010.1
20260506073258 18 219 3.2 4.8 0.00 0.00 0.00 68 1010.3
20260506072754 18 184 1.6 3.2 0.00 0.00 0.00 68 1010.2
20260506072252 18 214 3.2 4.8 0.00 0.00 0.00 67 1010.1
20260506071749 18 190 1.6 11.3 0.00 0.00 0.00 67 1010.1
20260506071247 19 89 1.6 6.4 0.00 0.00 0.00 66 1010.5
20260506070744 19 207 4.8 6.4 0.00 0.00 0.00 65 1010.2
20260506070241 19 195 1.6 11.3 0.00 0.00 0.00 65 1010.3
20260506062218 19 200 1.6 9.7 0.00 0.00 0.00 63 1010.3
20260506061714 19 200 1.6 9.7 0.00 0.00 0.00 64 1010.4
20260506061212 19 201 0.0 4.8 0.00 0.00 0.00 63 1010.3
20260506060710 19 199 3.2 4.8 0.00 0.00 0.00 62 1010.4
20260506060207 19 195 0.0 3.2 0.00 0.00 0.00 62 1010.4
20260506051139 20 211 1.6 3.2 0.00 0.00 0.00 59 1011.1
20260506050637 20 128 8.0 11.3 0.00 0.00 0.00 58 1011.0
20260506050134 20 214 6.4 9.7 0.00 0.00 0.00 58 1010.9
20260506045126 20 142 4.8 9.7 0.00 0.00 0.00 57 1010.9
20260506044625 20 85 1.6 16.1 0.00 0.00 0.00 56 1010.8
20260506044122 21 211 1.6 11.3 0.00 0.00 0.00 56 1010.8
20260506043619 20 110 4.8 6.4 0.00 0.00 0.00 56 1010.9
20260506043117 21 209 1.6 11.3 0.00 0.00 0.00 56 1011.0
20260506042616 21 207 3.2 4.8 0.00 0.00 0.00 55 1010.7
20260506042113 21 118 8.0 11.3 0.00 0.00 0.00 55 1010.7
20260506041612 21 285 6.4 9.7 0.00 0.00 0.00 55 1010.8
20260506041108 21 199 0.0 4.8 0.00 0.00 0.00 54 1010.6
20260506040606 21 171 9.7 11.3 0.00 0.00 0.00 54 1010.8
20260506035559 21 183 1.6 6.4 0.00 0.00 0.00 54 1010.5
20260506035056 21 293 0.0 6.4 0.00 0.00 0.00 53 1010.5
20260506034553 21 192 4.8 17.7 0.00 0.00 0.00 53 1010.6
20260506034050 21 96 4.8 9.7 0.00 0.00 0.00 54 1010.8
20260506033547 20 30 1.6 4.8 0.00 0.00 0.00 55 1010.7
20260506033044 20 220 3.2 4.8 0.00 0.00 0.00 55 1010.7
20260506032542 20 135 1.6 3.2 0.00 0.00 0.00 55 1010.5
20260506032038 20 228 3.2 3.2 0.00 0.00 0.00 55 1010.7
20260506031536 21 232 1.6 3.2 0.00 0.00 0.00 55 1010.8
20260506031033 21 144 1.6 9.7 0.00 0.00 0.00 54 1010.6
20260506030531 21 183 4.8 11.3 0.00 0.00 0.00 54 1010.5
20260506030028 21 177 3.2 4.8 0.00 0.00 0.00 54 1010.5
20260506025525 21 236 3.2 4.8 0.00 0.00 0.00 54 1010.6
20260506025020 21 189 3.2 3.2 0.00 0.00 0.00 53 1010.4
20260506024517 21 229 1.6 3.2 0.00 0.00 0.00 53 1010.4
20260506024014 21 178 3.2 4.8 0.00 0.00 0.00 53 1010.4
20260506023510 21 143 6.4 11.3 0.00 0.00 0.00 53 1010.9
20260506023008 21 187 1.6 4.8 0.00 0.00 0.00 52 1010.6
20260506022505 21 198 3.2 6.4 0.00 0.00 0.00 51 1010.5
20260506022003 21 224 1.6 9.7 0.00 0.00 0.00 52 1010.4
20260506021500 21 250 4.8 11.3 0.00 0.00 0.00 51 1010.7
20260506020957 21 219 3.2 12.9 0.00 0.00 0.00 51 1010.6
20260506020454 21 188 3.2 6.4 0.00 0.00 0.00 51 1010.4
20260506015951 22 180 1.6 12.9 0.00 0.00 0.00 50 1010.5
20260506015449 22 145 3.2 11.3 0.00 0.00 0.00 50 1010.6
20260506014946 22 308 3.2 11.3 0.00 0.00 0.00 50 1010.3
20260506014442 22 193 3.2 6.4 0.00 0.00 0.00 50 1010.2
20260506013939 22 118 4.8 9.7 0.00 0.00 0.00 49 1010.1
20260506013437 22 137 3.2 4.8 0.00 0.00 0.00 48 1010.2
20260506012933 22 195 6.4 16.1 0.00 0.00 0.00 47 1010.1
20260506012430 22 70 4.8 6.4 0.00 0.00 0.00 47 1010.1
20260506011927 23 102 3.2 6.4 0.00 0.00 0.00 45 1010.0
20260506011424 23 110 8.0 11.3 0.00 0.00 0.00 43 1009.8
20260506010921 24 185 3.2 4.8 0.00 0.00 0.00 39 1009.8
20260506010420 25 187 4.8 9.7 0.00 0.00 0.00 37 1009.6
20260506005915 25 250 4.8 11.3 0.00 0.00 0.00 37 1009.5
20260506005414 25 176 3.2 16.1 0.00 0.00 0.00 37 1009.4
20260506004908 25 193 8.0 11.3 0.00 0.00 0.00 36 1009.6
20260506004407 25 156 3.2 6.4 0.00 0.00 0.00 36 1009.5
20260506003902 25 186 3.2 11.3 0.00 0.00 0.00 36 1009.4
20260506003359 25 343 3.2 12.9 0.00 0.00 0.00 35 1009.2
20260506002855 25 63 6.4 12.9 0.00 0.00 0.00 34 1009.1
20260506002351 25 201 1.6 4.8 0.00 0.00 0.00 33 1009.2
20260506001848 26 179 3.2 9.7 0.00 0.00 0.00 32 1009.2
20260506001344 26 83 3.2 4.8 0.00 0.00 0.00 33 1009.0
20260506000841 26 193 4.8 6.4 0.00 0.00 0.00 31 1008.9
20260506000340 26 251 3.2 11.3 0.00 0.00 0.00 31 1008.8
20260505235836 26 80 6.4 12.9 0.00 0.00 0.00 31 1009.0
20260505235333 26 187 6.4 9.7 0.00 0.00 0.00 31 1009.0
20260505234830 26 46 3.2 4.8 0.00 0.00 0.00 30 1008.7
20260505234328 26 194 1.6 3.2 0.00 0.00 0.00 30 1008.7
20260505233825 26 302 3.2 12.9 0.00 0.00 0.00 29 1008.7
20260505233322 26 65 4.8 12.9 0.00 0.00 0.00 30 1008.7
20260505232819 26 113 3.2 4.8 0.00 0.00 0.00 29 1008.6
20260505232317 26 229 4.8 9.7 0.00 0.00 0.00 28 1008.4
20260505231814 26 92 6.4 20.9 0.00 0.00 0.00 28 1008.6
20260505231312 26 155 3.2 9.7 0.00 0.00 0.00 28 1008.5
20260505230810 26 248 6.4 12.9 0.00 0.00 0.00 27 1008.5
20260505230306 27 99 3.2 6.4 0.00 0.00 0.00 27 1008.4
20260505225803 27 184 6.4 9.7 0.00 0.00 0.00 27 1008.2
20260505225301 27 208 8.0 16.1 0.00 0.00 0.00 27 1008.3
20260505224800 27 7 6.4 12.9 0.00 0.00 0.00 25 1008.2
20260505224259 27 210 4.8 12.9 0.00 0.00 0.00 26 1007.9
20260505223756 28 161 4.8 17.7 0.00 0.00 0.00 26 1008.0
20260505223252 28 111 4.8 11.3 0.00 0.00 0.00 27 1008.1
20260505222748 28 223 3.2 17.7 0.00 0.00 0.00 27 1007.9
20260505222245 28 6 8.0 12.9 0.00 0.00 0.00 26 1007.9
20260505221742 27 149 4.8 14.5 0.00 0.00 0.00 27 1007.9
20260505221238 27 139 3.2 4.8 0.00 0.00 0.00 27 1007.9
20260505220735 27 144 3.2 14.5 0.00 0.00 0.00 27 1007.9
20260505220233 27 173 1.6 12.9 0.00 0.00 0.00 27 1007.8
20260505215731 28 233 4.8 6.4 0.00 0.00 0.00 27 1007.7
20260505215228 28 226 9.7 16.1 0.00 0.00 0.00 26 1007.6
20260505214726 28 100 1.6 12.9 0.00 0.00 0.00 26 1007.8
20260505214223 28 100 4.8 17.7 0.00 0.00 0.00 26 1007.6
20260505213720 27 251 8.0 20.9 0.00 0.00 0.00 27 1007.5
20260505213218 28 218 4.8 12.9 0.00 0.00 0.00 26 1007.6
20260505212713 28 308 1.6 16.1 0.00 0.00 0.00 27 1007.6
20260505212211 28 226 8.0 11.3 0.00 0.00 0.00 26 1007.4
20260505211708 28 222 8.0 16.1 0.00 0.00 0.00 27 1007.7
20260505211206 28 258 6.4 17.7 0.00 0.00 0.00 27 1007.4
20260505210702 29 192 4.8 12.9 0.00 0.00 0.00 27 1007.6
20260505210159 29 276 4.8 14.5 0.00 0.00 0.00 27 1007.4
20260505205656 29 255 12.9 22.5 0.00 0.00 0.00 24 1007.6
20260505205154 29 188 6.4 9.7 0.00 0.00 0.00 28 1007.4
20260505204650 29 144 6.4 24.1 0.00 0.00 0.00 26 1007.7
20260505204148 29 182 3.2 16.1 0.00 0.00 0.00 27 1007.5
20260505203645 29 275 9.7 12.9 0.00 0.00 0.00 26 1007.8
20260505203143 30 123 16.1 24.1 0.00 0.00 0.00 26 1007.6
20260505202638 28 210 3.2 4.8 0.00 0.00 0.00 29 1007.6
20260505202134 29 220 14.5 22.5 0.00 0.00 0.00 25 1007.6
20260505201630 29 307 12.9 17.7 0.00 0.00 0.00 26 1007.4
20260505201129 29 182 9.7 16.1 0.00 0.00 0.00 26 1007.6
20260505200627 29 36 6.4 12.9 0.00 0.00 0.00 25 1007.8
20260505200124 30 142 12.9 22.5 0.00 0.00 0.00 25 1007.6
20260505195620 30 232 4.8 11.3 0.00 0.00 0.00 25 1008.0
20260505195117 29 278 4.8 9.7 0.00 0.00 0.00 26 1008.0
20260505194614 29 163 6.4 16.1 0.00 0.00 0.00 26 1007.9
20260505194109 30 248 3.2 14.5 0.00 0.00 0.00 29 1008.1
20260505193607 30 109 4.8 12.9 0.00 0.00 0.00 28 1008.2
20260505193103 29 230 11.3 24.1 0.00 0.00 0.00 25 1008.4
20260505192602 29 315 9.7 16.1 0.00 0.00 0.00 25 1008.3
20260505192059 30 113 12.9 22.5 0.00 0.00 0.00 26 1008.7
20260505191557 30 206 6.4 14.5 0.00 0.00 0.00 27 1008.3
20260505191055 30 115 3.2 14.5 0.00 0.00 0.00 29 1008.4
20260505190549 30 294 8.0 20.9 0.00 0.00 0.00 27 1008.6
20260505190046 29 87 6.4 17.7 0.00 0.00 0.00 32 1008.4
20260505185543 29 86 11.3 22.5 0.00 0.00 0.00 31 1008.7
20260505185039 29 163 8.0 14.5 0.00 0.00 0.00 31 1008.9
20260505184536 29 115 11.3 14.5 0.00 0.00 0.00 29 1009.0
20260505184033 29 213 1.6 11.3 0.00 0.00 0.00 32 1009.0
20260505183529 29 349 6.4 16.1 0.00 0.00 0.00 30 1009.0
20260505183027 29 97 4.8 12.9 0.00 0.00 0.00 31 1009.0
20260505182523 28 198 6.4 16.1 0.00 0.00 0.00 30 1009.0
20260505182020 28 154 11.3 20.9 0.00 0.00 0.00 31 1009.2
20260505181516 29 80 9.7 24.1 0.00 0.00 0.00 29 1009.2
20260505181014 29 217 8.0 11.3 0.00 0.00 0.00 34 1009.0
20260505180509 29 193 6.4 12.9 0.00 0.00 0.00 35 1009.1
20260505180008 28 203 4.8 11.3 0.00 0.00 0.00 36 1009.1
20260505175502 29 270 8.0 11.3 0.00 0.00 0.00 33 1009.4
20260505175000 28 138 1.6 12.9 0.00 0.00 0.00 38 1009.1
20260505174457 28 206 8.0 11.3 0.00 0.00 0.00 37 1009.1
20260505173953 28 154 4.8 6.4 0.00 0.00 0.00 37 1009.3
20260505173449 28 243 4.8 9.7 0.00 0.00 0.00 38 1009.2
20260505172946 28 86 9.7 16.1 0.00 0.00 0.00 35 1009.4
20260505172445 28 73 1.6 9.7 0.00 0.00 0.00 41 1009.5
20260505171944 27 153 3.2 9.7 0.00 0.00 0.00 41 1009.5
20260505171441 27 229 6.4 14.5 0.00 0.00 0.00 38 1009.5
20260505170937 27 318 9.7 16.1 0.00 0.00 0.00 39 1009.6
20260505170434 27 110 1.6 3.2 0.00 0.00 0.00 44 1009.6
20260505165930 27 117 6.4 12.9 0.00 0.00 0.00 38 1009.7
20260505165426 27 270 3.2 6.4 0.00 0.00 0.00 36 1009.8
20260505164921 27 300 4.8 12.9 0.00 0.00 0.00 41 1010.0
20260505164418 27 201 6.4 12.9 0.00 0.00 0.00 39 1010.0
20260505163916 27 240 9.7 16.1 0.00 0.00 0.00 39 1010.0
20260505163415 27 93 3.2 4.8 0.00 0.00 0.00 41 1009.9
20260505162913 27 138 4.8 4.8 0.00 0.00 0.00 38 1010.2
20260505162409 27 283 1.6 4.8 0.00 0.00 0.00 41 1010.4
20260505161906 27 190 8.0 11.3 0.00 0.00 0.00 38 1010.3
20260505161403 27 123 4.8 9.7 0.00 0.00 0.00 39 1010.4
20260505160900 26 190 3.2 9.7 0.00 0.00 0.00 42 1010.4
20260505160358 26 135 4.8 11.3 0.00 0.00 0.00 39 1010.6
20260505153337 25 84 3.2 6.4 0.00 0.00 0.00 42 1011.3
20260505152834 26 140 6.4 12.9 0.00 0.00 0.00 41 1010.9
20260505152332 26 203 3.2 3.2 0.00 0.00 0.00 43 1011.0
20260505151831 25 144 1.6 3.2 0.00 0.00 0.00 44 1011.2
20260505151328 25 8 3.2 12.9 0.00 0.00 0.00 41 1011.2
20260505150825 24 120 1.6 3.2 0.00 0.00 0.00 44 1011.3
20260505150322 25 171 1.6 4.8 0.00 0.00 0.00 45 1011.0
20260505140246 23 98 1.6 4.8 0.00 0.00 0.00 47 1011.6
20260505130210 21 143 1.6 3.2 0.00 0.00 0.00 52 1011.3
20260505124700 20 97 1.6 1.6 0.00 0.00 0.00 58 1011.3
20260505124157 19 119 3.2 4.8 0.00 0.00 0.00 57 1011.1
20260505123653 19 93 4.8 4.8 0.00 0.00 0.00 58 1011.4